Weather in Ronse

Belgium     50°45′01″N   3°35′48″E
temp.,
°C
wind,
m/s
gust,
m/s
humid.,
%
clouds,
%
prec.,
mm/h
press.,
hPa
HPBL,
m
24 october, sun
sun2423:00+7sse347960 0.0 102756
02:00+6sse348251 0.0 102663
05:00+5sse349027 0.0 102571
08:00+4sse37915 0.0 1023110
11:00+9s59695 0.0 1023359
14:00+13s68545 0.0 1021695
17:00+13s47585 0.0 1020676
20:00+8s48785 0.0 1019131
25 october, mon
mon2523:00+6s4107714 0.0 1019170
02:00+9s41169100 0.0 1018263
05:00+9ssw51076100 0.7 1018295
08:00+8s51095100 1.5 1017269
11:00+10s51090100 0.5 1018303
14:00+13ssw698146 0.6 1017485
17:00+13ssw58805 0.0 1017811
20:00+10s499159 0.1 1017156
26 october, tue
tue2623:00+10sw4992100 0.4 1018233
02:00+9sw3897100 1.3 1018168
05:00+9sw36965 0.2 1019112
08:00+8sw359692 0.2 102094
11:00+11sw4788100 0.0 1021292
14:00+15sw577390 0.0 1021963
17:00+14sw51077100 0.1 1020474
20:00+13sw4108385 0.1 1022363
27 october, wed
wed2723:00+10ssw4119258 0.0 1022227
02:00+10ssw4109356 0.0 1022204
05:00+9ssw4119440 0.0 1022212
08:00+9ssw51195100 0.0 1022242
11:00+12ssw6128499 0.0 1022405
14:00+17ssw796942 0.0 1022769
17:00+16ssw6971100 0.0 1021753
20:00+12s4118895 0.0 1021216
28 october, thu
thu2823:00+10s4119058 0.0 1021203
02:00+9s4119080 0.0 1019216
05:00+9s411835 0.0 1018216
08:00+8s412835 0.0 1018230
11:00+12s614695 0.0 1016418
14:00+16s711565 0.0 1015614
17:00+16s713585 0.0 1013647
20:00+12s615677 0.0 1012346